Location: Unspecified
(52.4292°N, 19.3359°E)
Time: 23:40:48
(UTC+02:00)

A-11 Canister half - Pass Details

Date: 27 May 2024
Orbit: 1524 x 1683 km, 47.3° (Epoch: 19 June)

Event Time Altitude Azimuth Distance (km) Brightness Sun altitude
Rises 03:32:09 0° 286° (WNW) 4,777 11.3 -7.2°
Reaches altitude 10° 03:35:52 10° 274° (W) 3,815 10.7 -6.9°
Maximum altitude 03:43:15 25° 224° (SW) 2,830 9.8 -6.1°
Drops below altitude 10° 03:50:48 10° 174° (S) 3,897 10.7 -5.4°
Sets 03:54:41 0° 163° (SSE) 4,899 11.4 -4.9°
